period_start,C,m1,H,J0,J1,J2,J3,J4,J5,JA,JB,JC,JD,JJ,JK,JN,#
2017-03-08 00:03:45,0.29,13.11,0.00,23.91,26.34,30.00,14.51,52.48,1013.59,2027.00,973.21,1247.13,1399.54,600.17,592.53,56.56,0000 0000 0000 0000 000000
2017-03-08 00:08:46,0.32,13.13,0.00,23.92,26.35,30.01,14.52,52.32,1013.57,2027.00,971.91,1246.12,1398.46,600.20,592.71,56.61,0000 0000 0000 0000 000000
2017-03-08 00:13:48,0.34,13.14,0.00,23.97,26.35,30.01,14.37,52.31,1013.29,2027.00,970.63,1245.20,1397.35,600.06,592.15,56.66,0000 0000 0000 0000 000000
2017-03-08 00:18:49,0.31,13.16,0.00,23.99,26.35,30.02,14.46,52.45,1013.23,2027.00,969.32,1244.20,1396.27,599.88,591.94,56.71,0000 0000 0000 0000 000000
2017-03-08 00:23:50,0.32,13.18,0.00,24.02,26.37,30.02,14.42,52.43,1013.20,2027.00,967.99,1243.30,1395.24,599.97,592.03,56.76,0000 0000 0000 0000 000000
2017-03-08 00:28:52,0.33,13.19,0.00,23.98,26.37,30.02,14.47,52.58,1013.20,2027.00,966.71,1242.28,1394.09,599.63,591.72,56.81,0000 0000 0000 0000 000000
2017-03-08 00:33:53,0.32,13.21,0.00,23.96,26.38,30.02,14.45,52.50,1013.18,2027.00,965.53,1241.32,1392.98,600.20,592.29,56.86,0000 0000 0000 0000 000000
2017-03-08 00:38:55,0.30,13.23,0.00,23.98,26.40,30.02,14.54,52.63,1013.12,2027.00,964.27,1240.33,1391.88,599.91,591.92,56.91,0000 0000 0000 0000 000000
2017-03-08 00:43:56,0.35,13.24,0.00,24.00,26.40,30.03,14.45,52.66,1012.91,2027.00,962.91,1239.37,1390.72,599.81,591.68,56.96,0000 0000 0000 0000 000000
2017-03-08 00:48:57,0.34,13.26,0.00,23.99,26.40,30.03,14.46,52.64,1012.77,2027.00,961.62,1238.42,1389.62,599.87,591.67,57.02,0000 0000 0000 0000 000000
2017-03-08 00:53:58,0.31,13.28,0.00,24.01,26.41,30.02,14.43,52.60,1012.75,2027.01,960.47,1237.43,1388.53,600.25,592.03,57.07,0000 0000 0000 0000 000000
2017-03-08 00:59:00,0.30,13.29,0.00,24.00,26.42,30.02,14.46,52.66,1012.76,2027.00,959.38,1236.43,1387.40,600.01,591.72,57.12,0000 0000 0000 0000 000000
2017-03-08 01:04:01,0.30,13.31,0.00,24.02,26.42,30.02,14.48,52.53,1012.72,2027.00,958.11,1235.40,1386.21,600.23,592.00,57.17,0000 0000 0000 0000 000000
2017-03-08 01:09:02,0.34,13.33,0.00,24.01,26.43,30.01,14.44,52.67,1012.71,2027.00,956.82,1234.38,1385.06,599.74,591.46,57.22,0000 0000 0000 0000 000000
2017-03-08 01:14:03,0.33,13.34,0.00,24.05,26.45,30.00,14.49,52.60,1012.71,2027.00,955.62,1233.40,1383.94,600.28,591.92,57.27,0000 0000 0000 0000 000000
2017-03-08 01:19:04,0.33,13.36,0.00,24.02,26.45,30.01,14.46,52.54,1012.71,2027.00,954.36,1232.36,1382.78,599.80,591.33,57.32,0000 0000 0000 0000 000000
2017-03-08 01:24:05,0.34,13.38,0.00,24.00,26.45,30.01,14.45,52.56,1012.68,2027.00,952.99,1231.36,1381.60,599.92,591.79,57.37,0000 0000 0000 0000 000000
2017-03-08 01:29:07,0.36,13.40,0.00,24.03,26.47,30.02,14.45,52.59,1012.63,2027.00,951.66,1230.30,1380.42,600.18,591.85,57.42,0000 0000 0000 0000 000000
2017-03-08 01:34:08,0.32,13.42,0.00,24.06,26.47,30.03,14.46,52.56,1012.66,2027.00,950.34,1229.23,1379.23,600.20,591.77,57.47,0000 0000 0000 0000 000000
2017-03-08 01:39:09,0.30,13.43,0.00,24.08,26.48,30.03,14.44,52.58,1012.64,2027.00,949.03,1228.20,1378.02,600.00,591.58,57.52,0000 0000 0000 0000 000000
2017-03-08 01:44:10,0.38,13.45,0.00,24.06,26.50,30.03,14.38,52.55,1012.31,2027.00,947.75,1227.19,1376.82,599.74,591.17,57.57,0000 0000 0000 0000 000000
2017-03-08 01:49:12,0.35,13.47,0.00,24.08,26.50,30.03,14.41,52.57,1012.25,2027.00,946.40,1226.10,1375.68,600.06,591.42,57.62,0000 0000 0000 0000 000000
2017-03-08 01:54:13,0.31,13.48,0.00,24.11,26.51,30.03,14.39,52.62,1012.22,2026.99,945.21,1225.10,1374.47,599.63,590.88,57.67,0000 0000 0000 0000 000000
2017-03-08 01:59:15,0.31,13.50,0.00,24.11,26.52,30.02,14.48,52.66,1012.22,2026.99,943.94,1224.09,1373.32,600.15,591.31,57.72,0000 0000 0000 0000 000000
2017-03-08 02:04:16,0.35,13.52,0.00,24.10,26.52,30.02,14.36,52.67,1012.15,2026.99,942.75,1223.04,1372.19,599.78,591.04,57.77,0000 0000 0000 0000 000000
2017-03-08 02:09:17,0.32,13.53,0.00,24.07,26.55,30.02,14.41,52.68,1011.95,2026.99,941.65,1222.06,1371.04,600.10,591.22,57.82,0000 0000 0000 0000 000000
2017-03-08 02:14:19,0.29,13.55,0.00,24.09,26.55,30.01,14.45,52.79,1011.86,2026.97,940.62,1221.12,1369.95,600.18,591.22,57.88,0000 0000 0000 0000 000000
2017-03-08 02:19:20,0.32,13.56,0.00,24.11,26.55,30.01,14.41,52.68,1011.76,2026.95,939.48,1220.17,1368.82,600.13,591.16,57.93,0000 0000 0000 0000 000000
2017-03-08 02:24:21,0.32,13.58,0.00,24.12,26.56,30.01,14.44,52.75,1011.73,2026.95,938.20,1219.22,1367.73,600.66,591.45,57.98,0000 0000 0000 0000 000000
2017-03-08 02:29:22,0.38,13.60,0.00,24.12,26.57,30.01,14.34,52.59,1011.73,2026.95,936.80,1218.18,1366.56,599.62,590.53,58.03,0000 0000 0000 0000 000000
2017-03-08 02:34:24,0.31,13.62,0.00,24.13,26.57,30.00,14.31,52.73,1011.60,2026.98,935.67,1217.15,1365.47,599.56,590.49,58.08,0000 0000 0000 0000 000000
2017-03-08 02:39:25,0.34,13.63,0.00,24.16,26.57,29.98,14.38,52.66,1011.46,2026.95,934.37,1216.22,1364.34,599.86,590.62,58.13,0000 0000 0000 0000 000000
2017-03-08 02:44:26,0.38,13.65,0.00,24.15,26.57,29.98,14.33,52.69,1011.31,2026.94,932.78,1215.16,1363.08,599.71,590.37,58.18,0000 0000 0000 0000 000000
2017-03-08 02:49:27,0.31,13.67,0.00,24.15,26.58,29.99,14.39,52.65,1011.28,2026.95,931.66,1214.28,1361.99,600.12,590.70,58.23,0000 0000 0000 0000 000000
2017-03-08 02:54:29,0.26,13.68,0.00,24.16,26.60,29.98,14.41,52.63,1011.28,2026.88,930.77,1213.40,1360.92,599.99,590.59,58.28,0000 0000 0000 0000 000000
2017-03-08 02:59:30,0.22,13.70,0.00,24.20,26.60,29.97,14.45,52.67,1011.26,2026.53,929.87,1212.33,1359.77,600.21,590.71,58.33,0000 0000 0000 0000 000000
2017-03-08 03:04:31,0.40,13.71,0.00,24.19,26.60,29.96,14.37,52.68,1011.25,2026.41,928.50,1211.33,1358.55,599.81,590.43,58.38,0000 0000 0000 0000 000000
2017-03-08 03:09:32,0.28,13.73,0.00,24.20,26.60,29.96,14.43,52.81,1011.23,2026.18,927.23,1210.27,1357.41,600.06,590.45,58.43,0000 0000 0000 0000 000000
2017-03-08 03:14:34,0.34,13.75,0.00,24.22,26.61,29.96,14.39,52.70,1011.15,2026.17,925.96,1209.29,1356.28,599.95,590.30,58.48,0000 0000 0000 0000 000000
2017-03-08 03:19:35,0.41,13.77,0.00,24.19,26.62,29.95,14.50,52.81,1010.85,2026.20,924.47,1208.01,1354.86,600.09,590.32,58.53,0000 0000 0000 0000 000000
2017-03-08 03:24:36,0.28,13.78,0.00,24.22,26.62,29.95,14.36,52.82,1010.80,2026.06,923.47,1207.04,1353.77,599.83,590.14,58.58,0000 0000 0000 0000 000000
2017-03-08 03:29:38,0.41,13.80,0.00,24.24,26.62,29.93,14.37,52.79,1010.80,2026.03,921.90,1206.05,1352.61,600.30,590.53,58.63,0000 0000 0000 0000 000000
2017-03-08 03:34:39,0.23,13.82,0.00,24.26,26.62,29.94,14.42,52.82,1010.87,2026.04,921.00,1205.09,1351.55,599.92,590.16,58.68,0000 0000 0000 0000 000000
2017-03-08 03:39:40,0.30,13.83,0.00,24.25,26.63,29.93,14.42,52.74,1010.81,2026.01,920.20,1204.32,1350.58,600.06,590.21,58.73,0000 0000 0000 0000 000000
2017-03-08 03:44:42,0.37,13.85,0.00,24.25,26.64,29.94,14.34,52.82,1010.77,2026.00,918.74,1203.24,1349.43,599.63,589.72,58.78,0000 0000 0000 0000 000000
2017-03-08 03:49:43,0.37,13.87,0.00,24.26,26.65,29.93,14.33,52.77,1010.76,2026.00,917.32,1202.26,1348.32,599.58,589.73,58.83,0000 0000 0000 0000 000000
2017-03-08 03:54:44,0.32,13.88,0.00,24.26,26.65,29.94,14.45,52.78,1010.76,2026.00,915.94,1201.21,1347.19,600.58,590.74,58.89,0000 0000 0000 0000 000000
2017-03-08 03:59:46,0.38,13.90,0.00,24.27,26.65,29.94,14.37,52.82,1010.74,2026.00,914.65,1200.25,1346.09,599.90,589.89,58.94,0000 0000 0000 0000 000000
2017-03-08 04:04:47,0.68,13.93,0.00,24.29,26.65,29.93,14.38,52.82,1010.63,2026.00,912.96,1198.38,1343.94,600.26,590.18,58.99,0000 0000 0000 0000 000000
2017-03-08 04:09:48,0.35,13.96,0.00,24.30,26.65,29.93,14.37,52.74,1010.47,2026.00,911.25,1196.84,1342.61,600.09,589.94,59.04,0000 0000 0000 0000 000000
2017-03-08 04:14:50,0.29,13.97,0.00,24.30,26.66,29.94,14.36,52.77,1010.35,2026.00,910.24,1195.95,1341.56,600.10,589.91,59.09,0000 0000 0000 0000 000000
2017-03-08 04:19:51,0.27,13.99,0.00,24.33,26.67,29.95,14.43,52.75,1010.30,2026.00,909.41,1195.07,1340.62,600.13,589.67,59.14,0000 0000 0000 0000 000000
2017-03-08 04:24:53,0.33,14.00,0.00,24.30,26.67,29.95,14.35,52.78,1010.27,2025.99,908.31,1194.21,1339.52,599.95,589.68,59.19,0000 0000 0000 0000 000000
2017-03-08 04:29:54,0.43,14.02,0.00,24.30,26.67,29.96,14.37,52.77,1010.27,2025.99,906.71,1193.16,1338.38,599.79,589.36,59.24,0000 0000 0000 0000 000000
2017-03-08 04:34:55,0.25,14.04,0.00,24.30,26.68,29.97,14.36,52.82,1010.27,2025.99,905.81,1192.29,1337.40,600.06,589.81,59.29,0000 0000 0000 0000 000000
2017-03-08 04:39:57,0.38,14.05,0.00,24.32,26.69,29.98,14.32,53.02,1010.25,2025.99,904.47,1191.30,1336.27,599.73,589.48,59.34,0000 0000 0000 0000 000000
2017-03-08 04:44:58,0.31,14.07,0.00,24.32,26.70,29.97,14.35,52.93,1010.02,2025.97,903.36,1190.35,1335.15,600.17,589.69,59.39,0000 0000 0000 0000 000000
2017-03-08 04:49:59,0.40,14.09,0.00,24.29,26.70,29.99,14.39,52.81,1009.79,2025.97,901.84,1189.28,1333.92,600.04,589.48,59.44,0000 0000 0000 0000 000000
2017-03-08 04:55:01,0.33,14.11,0.00,24.34,26.70,29.99,14.36,52.91,1009.79,2025.97,900.70,1188.36,1332.86,599.90,589.26,59.49,0000 0000 0000 0000 000000
2017-03-08 05:00:02,0.22,14.12,0.00,24.32,26.72,29.99,14.42,52.88,1009.79,2025.93,899.92,1187.47,1331.83,600.24,589.61,59.54,0000 0000 0000 0000 000000
2017-03-08 05:05:04,0.41,14.14,0.00,24.28,26.72,30.01,14.49,52.90,1009.78,2025.81,898.60,1186.49,1330.73,600.44,589.90,59.59,0000 0000 0000 0000 000000
2017-03-08 05:10:06,0.30,14.15,0.00,24.32,26.72,30.01,14.38,52.88,1009.78,2025.79,897.54,1185.51,1329.57,600.22,589.50,59.64,0000 0000 0000 0000 000000
2017-03-08 05:15:07,0.36,14.17,0.00,24.35,26.72,30.00,14.32,52.85,1009.77,2025.73,896.19,1184.41,1328.34,599.72,589.04,59.69,0000 0000 0000 0000 000000
2017-03-08 05:20:08,0.28,14.19,0.00,24.32,26.72,30.00,14.37,52.95,1009.64,2025.51,895.03,1183.49,1327.30,600.19,589.59,59.75,0000 0000 0000 0000 000000
2017-03-08 05:25:10,0.38,14.21,0.00,24.30,26.72,30.02,14.42,52.84,1009.35,2025.40,893.53,1182.52,1326.18,599.89,589.08,59.80,0000 0000 0000 0000 000000
2017-03-08 05:30:11,0.48,14.23,0.00,24.33,26.72,30.02,14.29,52.84,1009.30,2025.68,891.75,1181.53,1325.28,599.95,589.10,59.85,0000 0000 0000 0000 000000
2017-03-08 05:35:12,0.26,14.25,0.00,24.33,26.72,30.02,14.40,52.90,1009.29,2025.80,890.79,1180.72,1324.33,600.13,589.13,59.90,0000 0000 0000 0000 000000
2017-03-08 05:40:14,0.34,14.26,0.00,24.37,26.72,30.01,14.33,52.82,1009.28,2025.71,889.60,1179.81,1323.26,599.84,588.88,59.95,0000 0000 0000 0000 000000
2017-03-08 05:45:15,0.35,14.28,0.00,24.35,26.72,30.01,14.32,52.86,1009.27,2025.81,888.33,1178.84,1322.18,599.87,588.83,60.00,0000 0000 0000 0000 000000
2017-03-08 05:50:16,0.30,14.30,0.00,24.29,26.72,30.03,14.34,52.90,1009.14,2025.83,887.06,1177.96,1321.18,600.10,589.14,60.05,0000 0000 0000 0000 000000
2017-03-08 05:55:18,0.31,14.32,0.00,24.34,26.72,30.03,14.37,52.88,1008.96,2025.85,886.07,1177.08,1320.20,600.01,588.82,60.10,0000 0000 0000 0000 000000
2017-03-08 06:00:19,0.16,9.07,0.00,24.39,26.74,30.03,12.85,45.92,1008.83,2028.23,1966.31,1944.39,2212.15,534.06,523.78,0.01,0000 0000 0000 0000 000002
2017-03-08 06:05:20,0.26,0.00,0.00,24.40,26.75,30.03,14.30,48.39,1008.83,2031.99,3574.42,3087.19,3542.49,600.32,589.07,0.03,0000 0000 0000 0000 000000
2017-03-08 06:10:22,0.28,0.02,0.00,24.33,26.73,30.04,14.26,48.27,1008.84,2031.98,3564.97,3081.17,3535.61,599.80,588.70,0.08,0000 0000 0000 0000 000000
2017-03-08 06:15:23,0.30,0.03,0.00,24.33,26.72,30.05,14.29,48.42,1008.84,2031.98,3556.81,3075.95,3529.52,599.57,588.42,0.13,0000 0000 0000 0000 000000
2017-03-08 06:20:24,0.33,0.05,0.00,24.35,26.72,30.05,14.21,48.23,1008.82,2031.97,3548.68,3070.70,3523.36,599.41,588.30,0.18,0000 0000 0000 0000 000000
2017-03-08 06:25:26,0.34,0.07,0.00,24.37,26.70,30.05,14.29,48.13,1008.81,2031.96,3541.06,3065.65,3517.59,600.29,589.07,0.23,0000 0000 0000 0000 000000
2017-03-08 06:30:27,0.32,0.08,0.00,24.36,26.70,30.05,14.27,47.99,1008.80,2031.98,3533.68,3060.93,3512.35,600.05,588.77,0.28,0000 0000 0000 0000 000000
2017-03-08 06:35:28,0.30,0.10,0.00,24.34,26.70,30.05,14.29,47.98,1008.80,2031.99,3526.97,3056.54,3507.13,599.98,588.72,0.33,0000 0000 0000 0000 000000
2017-03-08 06:40:30,0.28,0.11,0.00,24.34,26.68,30.05,14.24,47.97,1008.73,2031.98,3520.37,3052.17,3501.97,599.82,588.48,0.38,0000 0000 0000 0000 000000
2017-03-08 06:45:31,0.27,0.13,0.00,24.34,26.67,30.06,14.28,47.92,1008.68,2031.99,3514.12,3048.02,3497.37,600.19,588.85,0.43,0000 0000 0000 0000 000000
2017-03-08 06:50:32,0.27,0.14,0.00,24.32,26.67,30.06,14.23,47.85,1008.55,2031.99,3508.04,3043.97,3492.55,599.68,588.36,0.48,0000 0000 0000 0000 000000
2017-03-08 06:55:33,0.34,0.16,0.00,24.27,26.67,30.06,14.23,47.83,1008.52,2031.99,3501.10,3039.13,3487.03,599.77,588.50,0.53,0000 0000 0000 0000 000000
2017-03-08 07:00:35,0.29,0.17,0.00,24.31,26.65,30.04,14.33,47.90,1008.40,2031.99,3494.48,3034.38,3481.40,600.28,588.87,0.58,0000 0000 0000 0000 000000
2017-03-08 07:05:36,0.31,0.19,0.00,24.34,26.65,30.04,14.32,47.88,1008.34,2031.99,3487.59,3029.62,3475.99,600.20,588.72,0.63,0000 0000 0000 0000 000000
2017-03-08 07:10:37,0.27,0.20,0.00,24.35,26.65,30.03,14.27,47.80,1008.35,2031.99,3481.34,3025.42,3471.19,599.83,588.42,0.68,0000 0000 0000 0000 000000
2017-03-08 07:15:38,0.27,0.22,0.00,24.29,26.65,30.04,14.25,47.84,1008.34,2031.99,3475.24,3021.37,3466.50,599.97,588.50,0.73,0000 0000 0000 0000 000000
2017-03-08 07:20:40,0.27,0.23,0.00,24.24,26.64,30.04,14.24,47.82,1008.34,2032.00,3469.20,3017.38,3461.93,599.72,588.41,0.78,0000 0000 0000 0000 000000
2017-03-08 07:25:41,0.27,0.24,0.00,24.31,26.63,30.03,14.30,47.84,1008.33,2032.01,3463.27,3013.37,3457.34,600.10,588.71,0.83,0000 0000 0000 0000 000000
2017-03-08 07:30:42,0.25,0.26,0.00,24.31,26.62,30.03,14.23,47.98,1008.32,2032.00,3457.50,3009.49,3452.95,599.60,588.18,0.88,0000 0000 0000 0000 000000
2017-03-08 07:35:43,0.24,0.27,0.00,24.26,26.62,30.03,14.23,47.86,1008.32,2032.01,3452.13,3005.94,3448.64,599.73,588.43,0.93,0000 0000 0000 0000 000000
2017-03-08 07:40:45,0.25,0.28,0.00,24.33,26.62,30.03,14.26,47.84,1008.32,2032.01,3446.57,3002.13,3444.15,599.57,588.22,0.98,0000 0000 0000 0000 000000
2017-03-08 07:45:46,0.26,0.29,0.00,24.30,26.62,30.02,14.33,47.81,1008.32,2032.01,3440.87,2998.34,3439.66,600.01,588.53,1.03,0000 0000 0000 0000 000000
2017-03-08 07:50:47,0.25,0.31,0.00,24.24,26.62,30.03,14.27,47.92,1008.32,2032.01,3435.27,2994.53,3435.29,599.80,588.40,1.08,0000 0000 0000 0000 000000
2017-03-08 07:55:49,0.24,0.32,0.00,24.28,26.62,30.03,14.26,47.98,1008.32,2032.01,3429.78,2990.92,3431.15,599.62,588.26,1.13,0000 0000 0000 0000 000000
2017-03-08 08:00:50,0.19,0.33,0.00,24.28,26.62,30.03,14.26,47.93,1008.30,2032.02,3424.90,2988.17,3427.64,599.75,588.49,1.18,0000 0000 0000 0000 000000
2017-03-08 08:05:51,0.23,0.34,0.00,24.30,26.62,30.02,14.28,47.88,1008.30,2032.04,3419.89,2984.94,3423.81,599.97,588.60,1.23,0000 0000 0000 0000 000000
2017-03-08 08:10:53,0.22,0.35,0.00,24.26,26.62,30.02,14.29,47.98,1008.25,2032.03,3415.14,2981.69,3420.02,599.66,588.29,1.28,0000 0000 0000 0000 000000
2017-03-08 08:15:54,0.21,0.37,0.00,24.24,26.61,30.02,14.29,47.87,1008.13,2032.01,3410.42,2978.49,3416.31,600.12,588.73,1.33,0000 0000 0000 0000 000000
2017-03-08 08:20:55,0.22,0.38,0.00,24.28,26.60,30.02,14.31,47.94,1008.07,2032.01,3405.72,2975.20,3412.59,599.95,588.46,1.38,0000 0000 0000 0000 000000
2017-03-08 08:25:56,0.19,0.39,0.00,24.26,26.60,30.02,14.38,47.90,1008.04,2032.01,3401.39,2972.20,3409.09,600.60,589.19,1.43,0000 0000 0000 0000 000000
2017-03-08 08:30:57,0.18,0.40,0.00,24.31,26.60,30.01,14.24,47.67,1008.00,2032.01,3397.35,2969.39,3405.84,600.08,588.47,1.48,0000 0000 0000 0000 000000
2017-03-08 08:35:59,0.18,0.41,0.00,24.26,26.60,30.01,14.28,47.90,1007.87,2032.01,3393.40,2966.72,3402.76,600.03,588.44,1.54,0000 0000 0000 0000 000000
2017-03-08 08:41:00,0.21,0.42,0.00,24.23,26.60,30.01,14.29,47.88,1007.97,2032.01,3389.39,2963.80,3399.30,600.02,588.57,1.59,0000 0000 0000 0000 000000
2017-03-08 08:46:01,0.19,0.43,0.00,24.27,26.60,30.01,14.29,47.91,1007.91,2032.01,3385.09,2960.68,3395.66,600.50,588.97,1.64,0000 0000 0000 0000 000000
2017-03-08 08:51:02,0.17,0.44,0.00,24.24,26.60,30.01,14.24,47.94,1007.87,2032.01,3381.23,2958.12,3392.74,599.91,588.42,1.69,0000 0000 0000 0000 000000
2017-03-08 08:56:03,0.17,0.44,0.00,24.24,26.59,30.00,14.19,47.82,1007.85,2032.02,3377.49,2955.61,3390.07,599.54,587.98,1.74,0000 0000 0000 0000 000000
2017-03-08 09:01:04,0.17,0.45,0.00,24.28,26.59,30.00,14.23,47.83,1007.84,2032.04,3373.78,2953.08,3387.18,599.78,588.28,1.79,0000 0000 0000 0000 000000
2017-03-08 09:06:06,0.16,0.46,0.00,24.27,26.58,30.00,14.38,48.13,1007.83,2032.02,3370.23,2950.56,3384.25,600.36,588.58,1.84,0000 0000 0000 0000 000000
2017-03-08 09:11:07,0.17,0.47,0.00,24.20,26.57,30.01,14.29,48.04,1007.84,2032.03,3366.72,2948.14,3381.38,600.50,588.92,1.89,0000 0000 0000 0000 000000
2017-03-08 09:16:08,0.18,0.48,0.00,24.22,26.57,30.00,14.31,48.02,1007.83,2032.02,3363.05,2945.42,3378.24,599.97,588.43,1.94,0000 0000 0000 0000 000000
2017-03-08 09:21:10,0.17,0.49,0.00,24.30,26.57,30.00,14.29,47.91,1007.83,2032.01,3359.46,2942.90,3375.15,600.09,588.52,1.99,0000 0000 0000 0000 000000
2017-03-08 09:26:11,0.16,0.50,0.00,24.23,26.57,30.00,14.28,48.10,1007.83,2032.01,3356.00,2940.50,3372.36,600.07,588.54,2.04,0000 0000 0000 0000 000000
2017-03-08 09:31:13,0.20,0.50,0.00,24.26,26.57,29.99,14.26,48.02,1007.76,2032.00,3351.98,2937.85,3369.35,599.70,588.05,2.09,0000 0000 0000 0000 000000
2017-03-08 09:36:14,0.16,0.51,0.00,24.16,26.57,30.00,14.25,48.17,1007.64,2032.01,3348.11,2935.36,3366.32,600.12,588.61,2.14,0000 0000 0000 0000 000000
2017-03-08 09:41:15,0.17,0.52,0.00,24.23,26.57,29.99,14.37,48.14,1007.68,2032.01,3344.59,2932.83,3363.50,600.54,588.98,2.19,0000 0000 0000 0000 000000
2017-03-08 09:46:16,0.15,0.53,0.00,24.30,26.57,29.99,14.23,48.09,1007.73,2032.01,3341.16,2930.44,3360.80,599.68,587.99,2.24,0000 0000 0000 0000 000000
2017-03-08 09:51:17,0.17,0.54,0.00,24.30,26.57,29.99,14.20,48.00,1007.52,2032.01,3337.72,2928.10,3357.95,599.93,588.21,2.29,0000 0000 0000 0000 000000
2017-03-08 09:56:18,0.16,0.55,0.00,24.18,26.57,29.99,14.21,48.16,1007.44,2032.01,3334.22,2925.63,3355.10,599.94,588.31,2.34,0000 0000 0000 0000 000000
2017-03-08 10:01:19,0.16,0.56,0.00,24.26,26.57,29.99,14.29,48.19,1007.44,2032.01,3330.78,2923.19,3352.33,600.27,588.53,2.39,0000 0000 0000 0000 000000
2017-03-08 10:06:21,0.16,0.56,0.00,24.20,26.57,29.99,14.26,48.10,1007.44,2032.01,3327.46,2920.85,3349.53,600.25,588.78,2.44,0000 0000 0000 0000 000000
2017-03-08 10:11:22,0.17,0.57,0.00,24.25,26.57,29.98,14.24,48.16,1007.36,2032.01,3323.92,2918.31,3346.70,600.10,588.15,2.49,0000 0000 0000 0000 000000
2017-03-08 10:16:23,0.17,0.58,0.00,24.24,26.57,29.99,14.28,48.17,1007.35,2032.01,3320.38,2915.95,3343.86,599.78,587.86,2.54,0000 0000 0000 0000 000000
2017-03-08 10:21:24,0.16,0.59,0.00,24.21,26.57,29.99,14.31,48.07,1007.36,2032.01,3316.84,2913.53,3341.10,600.40,588.58,2.59,0000 0000 0000 0000 000000
2017-03-08 10:26:26,0.17,0.60,0.00,24.23,26.57,29.99,14.27,48.16,1007.36,2032.00,3313.45,2911.16,3338.35,599.95,588.22,2.64,0000 0000 0000 0000 000000
2017-03-08 10:31:27,0.16,0.61,0.00,24.27,26.57,29.98,14.23,48.10,1007.34,2032.01,3309.98,2908.79,3335.72,599.43,587.48,2.69,0000 0000 0000 0000 000000
2017-03-08 10:36:28,0.16,0.61,0.00,24.27,26.57,29.99,14.20,48.17,1007.31,2032.01,3306.54,2906.47,3333.04,599.55,587.63,2.74,0000 0000 0000 0000 000000
2017-03-08 10:41:30,0.17,0.62,0.00,24.21,26.57,29.99,14.26,48.18,1007.13,2032.01,3303.04,2904.07,3330.32,600.19,588.35,2.79,0000 0000 0000 0000 000000
2017-03-08 10:46:31,0.17,0.63,0.00,24.28,26.57,29.98,14.21,48.16,1006.97,2032.01,3299.55,2901.54,3327.53,599.90,587.81,2.84,0000 0000 0000 0000 000000
2017-03-08 10:51:32,0.17,0.64,0.00,24.21,26.57,29.98,14.35,48.23,1007.13,2032.00,3296.19,2899.17,3324.79,600.10,588.17,2.89,0000 0000 0000 0000 000000
2017-03-08 10:56:33,0.15,0.65,0.00,24.23,26.57,29.98,14.20,48.19,1007.03,2032.00,3292.81,2896.86,3322.13,599.85,587.82,2.94,0000 0000 0000 0000 000000
2017-03-08 11:01:34,0.16,0.66,0.00,24.25,26.57,29.98,14.24,48.03,1006.91,2032.00,3289.34,2894.45,3319.40,599.98,587.85,2.99,0000 0000 0000 0000 000000
2017-03-08 11:06:36,0.17,0.67,0.00,24.20,26.57,29.98,14.21,48.04,1006.88,2032.00,3285.84,2892.04,3316.51,599.85,587.74,3.04,0000 0000 0000 0000 000000
2017-03-08 11:11:37,0.17,0.67,0.00,24.19,26.57,29.98,14.26,48.19,1006.92,2032.00,3282.32,2889.57,3313.70,600.33,588.30,3.09,0000 0000 0000 0000 000000
2017-03-08 11:16:38,0.18,0.68,0.00,24.20,26.57,29.99,14.24,48.15,1006.89,2032.00,3278.67,2886.94,3310.61,599.95,587.91,3.14,0000 0000 0000 0000 000000
2017-03-08 11:21:39,0.17,0.69,0.00,24.27,26.57,29.97,14.28,48.01,1006.86,2032.00,3274.95,2884.31,3307.59,599.93,587.72,3.19,0000 0000 0000 0000 000000
2017-03-08 11:26:40,0.18,0.70,0.00,24.18,26.57,29.98,14.21,47.89,1006.85,2032.00,3271.25,2881.79,3304.65,600.11,588.03,3.24,0000 0000 0000 0000 000000
2017-03-08 11:31:42,0.18,0.71,0.00,24.26,26.57,29.98,14.31,48.07,1006.84,2032.00,3267.46,2879.16,3301.46,600.40,588.16,3.29,0000 0000 0000 0000 000000
2017-03-08 11:36:43,0.18,0.72,0.00,24.18,26.57,29.98,14.27,48.00,1006.79,2032.00,3263.81,2876.69,3298.58,600.17,588.09,3.34,0000 0000 0000 0000 000000
2017-03-08 11:41:44,0.18,0.73,0.00,24.19,26.57,29.98,14.29,48.04,1006.67,2032.00,3260.18,2873.99,3295.53,600.13,587.97,3.39,0000 0000 0000 0000 000000
2017-03-08 11:46:45,0.16,0.74,0.00,24.24,26.57,29.98,14.25,48.13,1006.55,2032.00,3256.68,2871.61,3292.67,599.90,587.68,3.44,0000 0000 0000 0000 000000
2017-03-08 11:51:46,0.18,0.75,0.00,24.24,26.57,29.98,14.25,48.20,1006.41,2032.00,3253.05,2869.10,3289.77,600.40,587.90,3.49,0000 0000 0000 0000 000000
2017-03-08 11:56:48,0.17,0.76,0.00,24.10,26.57,29.98,14.31,48.27,1006.38,2032.00,3249.49,2866.59,3287.03,600.30,588.05,3.54,0000 0000 0000 0000 000000
2017-03-08 12:01:49,0.16,0.76,0.00,24.21,26.57,29.98,14.28,48.23,1006.36,2032.00,3246.11,2864.33,3284.37,599.93,587.53,3.59,0000 0000 0000 0000 000000
2017-03-08 12:06:51,0.17,0.77,0.00,24.28,26.57,29.97,14.28,48.32,1006.36,2032.00,3242.76,2862.00,3281.65,599.87,587.39,3.64,0000 0000 0000 0000 000000
2017-03-08 12:11:52,0.17,0.78,0.00,24.24,26.57,29.98,14.22,48.13,1006.36,2032.00,3239.27,2859.53,3278.81,599.77,587.29,3.69,0000 0000 0000 0000 000000
2017-03-08 12:16:53,0.17,0.79,0.00,24.16,26.57,29.97,14.24,48.19,1006.35,2032.00,3235.87,2857.10,3276.04,599.95,587.68,3.74,0000 0000 0000 0000 000000
2017-03-08 12:21:54,0.17,0.80,0.00,24.20,26.57,29.97,14.25,48.18,1006.35,2032.00,3232.34,2854.61,3273.18,600.16,587.79,3.79,0000 0000 0000 0000 000000
2017-03-08 12:26:56,0.17,0.81,0.00,24.19,26.57,29.98,14.27,48.23,1006.27,2032.00,3228.86,2852.24,3270.44,599.96,587.57,3.84,0000 0000 0000 0000 000000
2017-03-08 12:31:57,0.16,0.82,0.00,24.20,26.57,29.97,14.23,48.45,1006.12,2032.00,3225.47,2849.90,3267.75,599.81,587.53,3.89,0000 0000 0000 0000 000000
2017-03-08 12:36:58,0.16,0.83,0.00,24.16,26.57,29.98,14.30,48.34,1006.02,2032.00,3222.06,2847.53,3265.06,599.96,587.43,3.95,0000 0000 0000 0000 000000
2017-03-08 12:42:00,0.18,0.84,0.00,24.15,26.57,29.98,14.23,48.29,1005.89,2032.00,3218.48,2845.01,3262.35,599.96,587.40,4.00,0000 0000 0000 0000 000000
2017-03-08 12:47:01,0.18,0.84,0.00,24.27,26.57,29.96,14.27,48.44,1005.88,2032.00,3214.93,2842.53,3259.54,600.14,587.39,4.05,0000 0000 0000 0000 000000
2017-03-08 12:52:02,0.18,0.85,0.00,24.28,26.57,29.96,14.26,48.49,1005.86,2032.00,3211.36,2839.98,3256.52,600.12,587.33,4.10,0000 0000 0000 0000 000000
2017-03-08 12:57:04,0.19,0.86,0.00,24.18,26.57,29.97,14.25,48.44,1005.79,2032.00,3207.77,2837.34,3253.48,600.15,587.49,4.15,0000 0000 0000 0000 000000